Weather History for Taylorville, IL

Change the Weather History Date:

Tuesday, December 10, 2013

  Actual Average (KSPI) Record (KSPI)
Temperature  
Mean Temperature 20 °F 32 °F  
Max Temperature 32 °F 40 °F 67 °F (1889)
Min Temperature 8 °F 24 °F -7 °F (1917)
Degree Days  
Heating Degree Days 45 33  
Month to date heating degree days 315  
Since 1 July heating degree days 1383  
Cooling Degree Days 0 0  
Month to date cooling degree days 0  
Year to date cooling degree days 1122  
Moisture  
Dew Point 10 °F    
Average Humidity 64    
Maximum Humidity 85    
Minimum Humidity 41    
Precipitation  
Precipitation 0.00 in 0.10 in 1.56 in (1971)
Month to date precipitation 0.94  
Year to date precipitation 35.85  
Snow  
Snow 0.00 in 0.10 in 6.40 in (1944)
Month to date snowfall 1.3  
Since 1 July snowfall 1.9  
Snow Depth -    
Sea Level Pressure  
Sea Level Pressure 30.24 in    
Wind  
Wind Speed 8 mph (WSW)    
Max Wind Speed 22 mph    
Max Gust Speed 28 mph    
Visibility 10 miles    
Events      
T = Trace of Precipitation, MM = Missing Value Source: NWS Daily Summary

Daily Weather History Graph

Daily Weather History Graph

Search for Another Location

Airport:

Trip Planner

Search our weather history database for the weather conditions in past years. The results will help you decide how hot, cold, wet, or windy it might be!

Date:

Astronomy

Dec. 10, 2013 Rise Set
Actual Time 7:07 AM CST 4:33 PM CST
Civil Twilight 6:36 AM CST 5:03 PM CST
Nautical Twilight 6:03 AM CST 5:37 PM CST
Astronomical Twilight 5:30 AM CST 6:09 PM CST
Moon 12:33 PM CST (12/10) 12:26 AM CST (12/10)
Length of Visible Light 10h 26m
Length of Day
9h 26m
Waxing Gibbous, 62% of the Moon is Illuminated
Dec 10
Waxing Gibbous
Dec 17
Full
Dec 25
Last Quarter
Jan 1
New
Jan 7
First Quarter

Hourly Weather History & Observations

Time (CST) Temp. Windchill Dew Point Humidity Pressure Visibility Wind Dir Wind Speed Gust Speed Precip Events Conditions
12:15 AM 17.6 °F 10.7 °F 10.4 °F 73% 30.26 in 10.0 mi West 4.6 mph - N/A   Mostly Cloudy
12:35 AM 17.6 °F 9.3 °F 10.4 °F 73% 30.26 in 10.0 mi WNW 5.8 mph - N/A   Scattered Clouds
12:55 AM 17.6 °F 7.3 °F 8.6 °F 68% 30.26 in 10.0 mi West 8.1 mph - N/A   Scattered Clouds
1:15 AM 15.8 °F 7.2 °F 6.8 °F 68% 30.26 in 10.0 mi WNW 5.8 mph - N/A   Clear
1:35 AM 15.8 °F 8.6 °F 8.6 °F 73% 30.25 in 10.0 mi WNW 4.6 mph - N/A   Clear
1:55 AM 15.8 °F - 8.6 °F 73% 30.24 in 10.0 mi Calm Calm - N/A   Clear
2:15 AM 14.0 °F 8.2 °F 8.6 °F 79% 30.23 in 10.0 mi SSW 3.5 mph - N/A   Clear
2:35 AM 14.0 °F - 8.6 °F 79% 30.24 in 10.0 mi Calm Calm - N/A   Clear
2:55 AM 14.0 °F 6.5 °F 6.8 °F 73% 30.25 in 10.0 mi WNW 4.6 mph - N/A   Clear
3:15 AM 12.2 °F 6.1 °F 6.8 °F 79% 30.25 in 10.0 mi West 3.5 mph - N/A   Clear
3:35 AM 12.2 °F 6.1 °F 6.8 °F 79% 30.24 in 10.0 mi SW 3.5 mph - N/A   Clear
4:35 AM 10.4 °F 2.2 °F 5.0 °F 79% 30.22 in 10.0 mi SSW 4.6 mph - N/A   Clear
4:55 AM 8.6 °F -1.3 °F 3.2 °F 79% 30.22 in 10.0 mi SSW 5.8 mph - N/A   Clear
5:15 AM 8.6 °F -3.7 °F 5.0 °F 85% 30.22 in 10.0 mi SW 8.1 mph - N/A   Clear
5:35 AM 12.2 °F 0.7 °F 8.6 °F 85% 30.22 in 10.0 mi SW 8.1 mph - N/A   Clear
5:55 AM 12.2 °F -1.0 °F 8.6 °F 85% 30.23 in 10.0 mi SW 10.4 mph - N/A   Clear
6:15 AM 12.2 °F -1.0 °F 6.8 °F 79% 30.22 in 10.0 mi SW 10.4 mph - N/A   Clear
6:35 AM 12.2 °F -1.8 °F 6.8 °F 79% 30.21 in 10.0 mi SSW 11.5 mph - N/A   Clear
6:55 AM 12.2 °F -1.8 °F 6.8 °F 79% 30.21 in 10.0 mi SSW 11.5 mph - N/A   Mostly Cloudy
7:15 AM 12.2 °F -1.0 °F 6.8 °F 79% 30.20 in 10.0 mi SSW 10.4 mph - N/A   Scattered Clouds
7:35 AM 12.2 °F -2.5 °F 6.8 °F 79% 30.20 in 10.0 mi SSW 12.7 mph - N/A   Clear
7:55 AM 14.0 °F 0.5 °F 6.8 °F 73% 30.20 in 10.0 mi SSW 11.5 mph - N/A   Clear
8:15 AM 15.8 °F 1.4 °F 6.8 °F 68% 30.19 in 10.0 mi SSW 13.8 mph - N/A   Clear
8:35 AM 17.6 °F 2.7 °F 8.6 °F 68% 30.18 in 10.0 mi SSW 16.1 mph 21.9 mph N/A   Clear
8:55 AM 19.4 °F 3.6 °F 8.6 °F 63% 30.19 in 10.0 mi SW 19.6 mph 26.5 mph N/A   Clear
9:15 AM 21.2 °F 6.0 °F 8.6 °F 58% 30.22 in 10.0 mi WSW 19.6 mph 26.5 mph N/A   Clear
9:35 AM 23.0 °F 8.0 °F 8.6 °F 54% 30.20 in 10.0 mi WSW 20.7 mph 26.5 mph N/A   Scattered Clouds
9:55 AM 23.0 °F 9.2 °F 8.6 °F 54% 30.20 in 10.0 mi WSW 17.3 mph - N/A   Scattered Clouds
10:15 AM 24.8 °F 11.5 °F 10.4 °F 54% 30.21 in 10.0 mi WSW 17.3 mph 24.2 mph N/A   Clear
10:35 AM 26.6 °F 14.3 °F 10.4 °F 51% 30.22 in 10.0 mi WSW 16.1 mph 23.0 mph N/A   Clear
10:55 AM 28.4 °F 15.8 °F 12.2 °F 51% 30.22 in 10.0 mi West 18.4 mph 21.9 mph N/A   Clear
11:15 AM 28.4 °F 15.1 °F 12.2 °F 51% 30.23 in 10.0 mi West 20.7 mph 26.5 mph N/A   Clear
11:35 AM 28.4 °F 15.8 °F 12.2 °F 51% 30.22 in 10.0 mi West 18.4 mph 23.0 mph N/A   Clear
11:55 AM 28.4 °F 17.0 °F 12.2 °F 51% 30.21 in 10.0 mi West 15.0 mph 25.3 mph N/A   Clear
12:15 PM 30.2 °F 19.3 °F 14.0 °F 51% 30.20 in 10.0 mi West 15.0 mph 24.2 mph N/A   Clear
12:35 PM 30.2 °F 17.1 °F 14.0 °F 51% 30.21 in 10.0 mi WNW 21.9 mph 27.6 mph N/A   Clear
12:55 PM 32.0 °F 21.2 °F 14.0 °F 48% 30.19 in 10.0 mi West 16.1 mph 25.3 mph N/A   Clear
1:15 PM 30.2 °F 18.1 °F 12.2 °F 47% 30.20 in 10.0 mi West 18.4 mph 27.6 mph N/A   Clear
1:35 PM 32.0 °F 21.2 °F 14.0 °F 48% 30.21 in 10.0 mi West 16.1 mph 26.5 mph N/A   Clear
1:55 PM 32.0 °F 22.5 °F 12.2 °F 44% 30.21 in 10.0 mi West 12.7 mph 21.9 mph N/A   Clear
2:15 PM 32.0 °F 20.8 °F 12.2 °F 44% 30.21 in 10.0 mi West 17.3 mph 25.3 mph N/A   Clear
2:35 PM 32.0 °F 22.1 °F 12.2 °F 44% 30.22 in 10.0 mi West 13.8 mph 23.0 mph N/A   Clear
2:55 PM 32.0 °F 21.6 °F 12.2 °F 44% 30.23 in 10.0 mi West 15.0 mph - N/A   Clear
3:15 PM 32.0 °F 24.2 °F 12.2 °F 44% 30.23 in 10.0 mi West 9.2 mph 18.4 mph N/A   Clear
3:35 PM 32.0 °F 22.1 °F 10.4 °F 41% 30.24 in 10.0 mi West 13.8 mph 24.2 mph N/A   Clear
3:55 PM 30.2 °F 20.2 °F 10.4 °F 44% 30.24 in 10.0 mi West 12.7 mph 20.7 mph N/A   Clear
4:15 PM 30.2 °F 23.4 °F 10.4 °F 44% 30.24 in 10.0 mi West 6.9 mph - N/A   Clear
4:35 PM 28.4 °F 20.4 °F 10.4 °F 47% 30.24 in 10.0 mi WNW 8.1 mph - N/A   Clear
4:55 PM 28.4 °F 22.2 °F 10.4 °F 47% 30.23 in 10.0 mi West 5.8 mph - N/A   Clear
5:15 PM 26.6 °F 19.1 °F 10.4 °F 51% 30.24 in 10.0 mi West 6.9 mph - N/A   Clear
5:35 PM 26.6 °F 20.0 °F 12.2 °F 55% 30.23 in 10.0 mi West 5.8 mph - N/A   Clear
5:55 PM 26.6 °F - 10.4 °F 51% 30.24 in 10.0 mi Calm Calm - N/A   Clear
6:15 PM 24.8 °F 20.5 °F 12.2 °F 59% 30.24 in 10.0 mi SSW 3.5 mph - N/A   Clear
6:35 PM 23.0 °F 18.4 °F 12.2 °F 63% 30.25 in 10.0 mi SSW 3.5 mph - N/A   Clear
6:55 PM 26.6 °F - 10.4 °F 51% 30.26 in 10.0 mi Calm Calm - N/A   Clear
7:15 PM 24.8 °F - 10.4 °F 54% 30.27 in 10.0 mi Calm Calm - N/A   Clear
7:35 PM 23.0 °F 18.4 °F 12.2 °F 63% 30.28 in 10.0 mi WSW 3.5 mph - N/A   Clear
7:55 PM 19.4 °F - 12.2 °F 74% 30.29 in 10.0 mi Calm Calm - N/A   Clear
8:15 PM 23.0 °F - 12.2 °F 63% 30.31 in 10.0 mi Calm Calm - N/A   Clear
8:35 PM 19.4 °F - 12.2 °F 74% 30.31 in 10.0 mi Calm Calm - N/A   Clear
8:55 PM 19.4 °F - 12.2 °F 74% 30.30 in 10.0 mi Calm Calm - N/A   Clear
9:15 PM 19.4 °F - 10.4 °F 68% 30.30 in 10.0 mi Calm Calm - N/A   Clear
9:35 PM 17.6 °F 12.3 °F 10.4 °F 73% 30.30 in 10.0 mi ENE 3.5 mph - N/A   Clear
9:55 PM 17.6 °F 12.3 °F 10.4 °F 73% 30.30 in 10.0 mi South 3.5 mph - N/A   Clear
10:15 PM 17.6 °F 10.7 °F 10.4 °F 73% 30.30 in 10.0 mi SSE 4.6 mph - N/A   Clear
10:35 PM 17.6 °F - 12.2 °F 79% 30.31 in 10.0 mi Calm Calm - N/A   Clear
10:55 PM 15.8 °F 10.2 °F 10.4 °F 79% 30.31 in 10.0 mi SE 3.5 mph - N/A   Clear
11:15 PM 17.6 °F 12.3 °F 12.2 °F 79% 30.31 in 10.0 mi SE 3.5 mph - N/A   Clear
11:35 PM 15.8 °F 10.2 °F 10.4 °F 79% 30.31 in 10.0 mi SSE 3.5 mph - N/A   Clear
11:55 PM 17.6 °F 12.3 °F 12.2 °F 79% 30.31 in 10.0 mi SSE 3.5 mph - N/A   Clear